sat.trackr.live / text

‹ back to catalog

STARLINK-2525

NORAD 48482 · 2021-040BG

PAYLOAD ACTIVE UNKNOWN

§ Identity

Operator
Country
US
Launch date
2021-05-09
Launch site
AFETR
Launch vehicle
Mass (kg)
RCS (m²)

Purposes: comms

External: N2YO · Heavens-Above · Gunter

§ Orbital elements

Epoch: 2026-09-19T15:51:53.511264Z

Period
94.01 min
Inclination
53.1602°
Eccentricity
0.0001157
Mean motion
15.31711486 rev/d
Perigee alt
469.9 km
Apogee alt
471.5 km
Semi-major
6,848.8 km
B*
9.8101e-5
RAAN
11.1991°
Arg perigee
81.5303°
Mean anomaly
278.5829°
Rev number
29,618

§ Raw data

STARLINK-25251 48482U 21040BG  26262.66103601  .00002681  00000+0  98101-4 0  99932 48482  53.1602  11.1991 0001157  81.5303 278.5829 15.31711486296185

JSON: /api/v1/satellites/48482 · /tle

For live sub-satellite position, see the globe view (requires WebGL).

§ Visibility from observer

Set your observer location to see the next 7 days of passes ≥ 10°. The values pass through the URL so the page stays shareable.

No JS? Fill the form by hand. The geolocation button needs JavaScript.